contact:dominique.lefevre@mio.osupytheas.fr, maurice.libes@osupytheas.fr, didier.mallarino@osupytheas.fr
Project:EMSO http://www.emso-fr.org/EMSO-France
Depth: 2436.0 m
Title:EMSO Ligure Ouest : Data MII capteur AQUADOPP
Date,Latitude,Longitude,X_East,Y_North,Z_Up,Amplitude_X,Amplitude_Y,Amplitude_Z,Batterie,SoundSpeed,Heading,Pitch,Roll,Pressure,TIS,Speed,Direction
, degrees North, degrees East, m.s-1, m.s-1,m.s-1, 1, 1, 1, Volt, m.s-1, degree, degree, degree, dbar, degree_C, m.s-1, degree
2023-08-05T00:04:02,42.805,6.029,0.003,-0.012,-0.05,103.0,103.0,101.0,13.4,1505.2,320.3,-0.8,1.8,2471.537,13.28,0.012,166.0
2023-08-05T00:07:03,42.805,6.029,0.017,-0.017,-0.001,104.0,104.0,102.0,13.4,1505.2,322.7,-0.8,1.8,2471.519,13.28,0.024,135.0
2023-08-05T00:10:03,42.805,6.029,0.005,-0.021,0.005,103.0,101.0,102.0,13.3,1505.2,338.4,-0.8,1.9,2471.474,13.29,0.021,166.6
2023-08-05T00:13:03,42.805,6.029,-0.005,0.008,-0.027,104.0,103.0,101.0,13.4,1505.2,336.8,-0.8,1.8,2471.46,13.29,0.009,328.0
2023-08-05T00:16:03,42.805,6.029,0.006,-0.028,-0.015,103.0,103.0,101.0,13.3,1505.2,326.3,-0.8,1.8,2471.463,13.29,0.028,167.9
2023-08-05T00:19:03,42.805,6.029,0.022,-0.012,-0.007,103.0,103.0,101.0,13.4,1505.2,327.7,-0.7,1.8,2471.463,13.29,0.025,118.6
2023-08-05T00:22:03,42.805,6.029,0.01,-0.029,-0.032,103.0,103.0,101.0,13.4,1505.2,344.7,-0.8,1.8,2471.469,13.29,0.03,161.0
2023-08-05T00:25:03,42.805,6.029,0.008,-0.005,-0.017,104.0,104.0,101.0,13.4,1505.2,345.9,-0.8,1.8,2471.466,13.29,0.009,122.0
2023-08-05T00:28:03,42.805,6.029,0.002,0.011,0.015,104.0,103.0,102.0,13.4,1505.2,331.7,-0.8,1.8,2471.445,13.29,0.011,10.3
2023-08-05T00:31:03,42.805,6.029,-0.008,-0.011,-0.021,104.0,103.0,102.0,13.4,1505.2,334.5,-0.8,1.8,2471.449,13.29,0.013,216.0
2023-08-05T00:34:03,42.805,6.029,0.017,-0.002,0.0,103.0,104.0,102.0,13.4,1505.2,350.1,-0.8,1.8,2471.433,13.29,0.017,96.7
2023-08-05T00:37:03,42.805,6.029,0.018,-0.013,-0.009,103.0,101.0,102.0,13.4,1505.2,331.8,-0.8,1.8,2471.438,13.29,0.022,125.8
2023-08-05T00:40:03,42.805,6.029,0.009,-0.013,-0.031,102.0,102.0,101.0,13.4,1505.2,335.3,-0.8,1.8,2471.447,13.29,0.015,145.3
2023-08-05T00:43:03,42.805,6.029,-0.002,0.004,-0.048,103.0,103.0,102.0,13.4,1505.2,325.3,-0.7,1.8,2471.431,13.29,0.004,333.4
2023-08-05T00:46:03,42.805,6.029,0.002,-0.012,-0.05,102.0,104.0,103.0,13.3,1505.2,349.3,-0.8,1.8,2471.429,13.29,0.012,170.5
2023-08-05T00:49:03,42.805,6.029,0.014,-0.013,-0.046,103.0,103.0,101.0,13.4,1505.2,326.6,-0.8,1.8,2471.438,13.29,0.019,132.9
2023-08-05T00:52:03,42.805,6.029,0.0,-0.013,0.003,103.0,102.0,101.0,13.3,1505.2,333.4,-0.7,1.8,2471.423,13.29,0.013,180.0
2023-08-05T00:55:03,42.805,6.029,0.015,0.005,-0.015,103.0,103.0,102.0,13.3,1505.2,345.9,-0.8,1.8,2471.428,13.29,0.015,71.6
2023-08-05T00:58:03,42.805,6.029,0.007,-0.006,-0.011,101.0,103.0,103.0,13.4,1505.2,332.3,-0.8,1.8,2471.404,13.29,0.009,130.6
2023-08-05T01:04:02,42.805,6.029,-0.006,-0.02,-0.002,106.0,104.0,105.0,13.4,1505.2,347.4,-0.8,1.8,2471.43,13.28,0.02,196.7
2023-08-05T01:07:03,42.805,6.029,0.024,-0.011,-0.027,104.0,103.0,102.0,13.4,1505.2,335.0,-0.7,1.8,2471.454,13.29,0.026,114.6
2023-08-05T01:10:03,42.805,6.029,0.024,-0.005,-0.03,102.0,106.0,102.0,13.3,1505.2,320.1,-0.8,1.8,2471.454,13.29,0.024,101.8
2023-08-05T01:13:03,42.805,6.029,0.009,-0.01,0.008,103.0,103.0,102.0,13.4,1505.2,336.9,-0.8,1.8,2471.421,13.29,0.013,138.0
2023-08-05T01:16:03,42.805,6.029,-0.015,0.006,-0.046,103.0,102.0,103.0,13.3,1505.2,341.1,-0.8,1.8,2471.42,13.29,0.016,291.8
2023-08-05T01:19:03,42.805,6.029,0.002,0.0,-0.008,103.0,103.0,102.0,13.3,1505.2,343.4,-0.8,1.8,2471.416,13.29,0.002,90.0
2023-08-05T01:22:02,42.805,6.029,-0.011,-0.015,-0.044,102.0,103.0,102.0,13.4,1505.2,329.3,-0.8,1.8,2471.42,13.29,0.018,216.3
2023-08-05T01:25:03,42.805,6.029,0.008,-0.019,-0.037,103.0,103.0,102.0,13.4,1505.2,328.8,-0.8,1.8,2471.407,13.29,0.02,157.2
2023-08-05T01:28:03,42.805,6.029,0.01,-0.01,-0.024,102.0,103.0,102.0,13.3,1505.2,329.3,-0.8,1.8,2471.386,13.29,0.014,135.0
2023-08-05T01:31:03,42.805,6.029,0.0,0.018,-0.028,104.0,102.0,102.0,13.4,1505.2,336.8,-0.8,1.8,2471.367,13.29,0.018,0.0
2023-08-05T01:34:03,42.805,6.029,0.003,-0.006,-0.051,102.0,103.0,101.0,13.3,1505.2,326.0,-0.8,1.8,2471.38,13.29,0.006,153.4
2023-08-05T01:37:03,42.805,6.029,0.006,-0.016,-0.01,103.0,102.0,102.0,13.4,1505.2,343.7,-0.8,1.8,2471.325,13.29,0.017,159.4
2023-08-05T01:40:03,42.805,6.029,-0.003,0.009,-0.033,102.0,102.0,101.0,13.3,1505.2,335.2,-0.8,1.8,2471.394,13.29,0.009,341.6
2023-08-05T01:43:03,42.805,6.029,-0.02,0.012,-0.051,103.0,103.0,100.0,13.4,1505.2,344.2,-0.7,1.8,2471.327,13.29,0.023,301.0
2023-08-05T01:46:03,42.805,6.029,0.02,-0.014,-0.02,103.0,102.0,101.0,13.4,1505.2,341.9,-0.8,1.8,2471.386,13.29,0.024,125.0
2023-08-05T01:49:03,42.805,6.029,0.018,-0.016,-0.005,102.0,101.0,102.0,13.3,1505.2,349.1,-0.7,1.8,2471.354,13.29,0.024,131.6
2023-08-05T01:52:03,42.805,6.029,0.007,-0.008,-0.037,102.0,102.0,102.0,13.4,1505.2,322.9,-0.8,1.8,2471.344,13.29,0.01,138.8
2023-08-05T01:55:03,42.805,6.029,-0.009,-0.013,-0.063,102.0,103.0,102.0,13.4,1505.2,336.5,-0.8,1.8,2471.332,13.29,0.015,214.7
2023-08-05T01:58:03,42.805,6.029,0.004,-0.006,-0.031,103.0,103.0,102.0,13.4,1505.2,326.5,-0.8,1.8,2471.369,13.29,0.007,146.3
2023-08-05T02:04:03,42.805,6.029,-0.015,0.0,-0.026,104.0,102.0,101.0,13.4,1505.2,320.7,-0.8,1.8,2471.355,13.29,0.015,270.0
2023-08-05T02:07:03,42.805,6.029,0.026,0.001,-0.011,103.0,103.0,101.0,13.4,1505.2,321.7,-0.8,1.8,2471.4,13.29,0.026,87.8
2023-08-05T02:10:03,42.805,6.029,0.02,-0.008,-0.015,103.0,102.0,102.0,13.3,1505.2,321.4,-0.7,1.8,2471.346,13.29,0.021,111.8
2023-08-05T02:13:03,42.805,6.029,-0.007,-0.011,-0.021,103.0,103.0,102.0,13.4,1505.2,319.1,-0.8,1.8,2471.379,13.29,0.013,212.5
2023-08-05T02:16:03,42.805,6.029,0.0,-0.012,-0.072,102.0,102.0,101.0,13.4,1505.2,322.6,-0.7,1.8,2471.398,13.29,0.012,180.0
2023-08-05T02:19:03,42.805,6.029,0.014,-0.004,-0.02,101.0,103.0,101.0,13.4,1505.2,321.3,-0.8,1.8,2471.353,13.29,0.014,105.9
2023-08-05T02:22:03,42.805,6.029,0.024,-0.02,-0.061,102.0,103.0,102.0,13.3,1505.2,322.3,-0.8,1.8,2471.346,13.29,0.031,129.8
2023-08-05T02:25:03,42.805,6.029,0.016,-0.008,0.006,103.0,102.0,101.0,13.3,1505.2,345.7,-0.8,1.8,2471.345,13.29,0.017,116.6
2023-08-05T02:28:03,42.805,6.029,0.019,-0.008,-0.026,103.0,102.0,101.0,13.4,1505.2,325.4,-0.8,1.8,2471.328,13.29,0.02,112.8
2023-08-05T02:31:03,42.805,6.029,0.0,-0.014,-0.039,103.0,104.0,101.0,13.3,1505.2,343.0,-0.8,1.8,2471.331,13.29,0.014,180.0
2023-08-05T02:34:03,42.805,6.029,-0.035,0.011,-0.039,103.0,105.0,100.0,13.4,1505.2,337.0,-0.8,1.8,2471.346,13.29,0.036,287.4
2023-08-05T02:37:03,42.805,6.029,-0.002,-0.012,-0.025,104.0,101.0,102.0,13.3,1505.2,329.8,-0.8,1.8,2471.333,13.29,0.012,189.5
2023-08-05T02:40:03,42.805,6.029,0.008,-0.015,-0.028,103.0,102.0,102.0,13.4,1505.2,347.4,-0.7,1.8,2471.288,13.29,0.017,151.9
2023-08-05T02:43:03,42.805,6.029,-0.002,0.02,-0.003,103.0,103.0,101.0,13.3,1505.2,343.6,-0.8,1.8,2471.333,13.29,0.02,354.3
2023-08-05T02:46:03,42.805,6.029,0.007,-0.004,-0.022,103.0,104.0,102.0,13.4,1505.2,318.9,-0.8,1.8,2471.328,13.29,0.008,119.7
2023-08-05T02:49:03,42.805,6.029,-0.002,-0.015,-0.058,103.0,102.0,102.0,13.4,1505.2,326.9,-0.7,1.9,2471.309,13.29,0.015,187.6
2023-08-05T02:52:03,42.805,6.029,0.001,0.018,-0.009,104.0,101.0,101.0,13.3,1505.2,321.7,-0.8,1.8,2471.286,13.29,0.018,3.2
2023-08-05T02:55:03,42.805,6.029,-0.008,-0.007,-0.033,104.0,104.0,100.0,13.4,1505.2,330.2,-0.8,1.8,2471.311,13.29,0.01,228.8
2023-08-05T02:58:03,42.805,6.029,0.003,-0.009,-0.036,102.0,104.0,101.0,13.3,1505.2,320.7,-0.7,1.8,2471.298,13.29,0.009,161.6
2023-08-05T03:04:03,42.805,6.029,-0.005,0.0,-0.033,103.0,106.0,101.0,13.4,1505.2,347.7,-0.8,1.8,2471.348,13.29,0.005,270.0
2023-08-05T03:07:03,42.805,6.029,0.012,0.011,-0.019,103.0,104.0,102.0,13.4,1505.2,341.2,-0.8,1.8,2471.328,13.29,0.016,47.5
2023-08-05T03:10:03,42.805,6.029,-0.016,0.0,-0.015,101.0,104.0,102.0,13.4,1505.2,325.3,-0.8,1.8,2471.344,13.29,0.016,270.0
2023-08-05T03:13:03,42.805,6.029,0.0,-0.01,-0.01,104.0,102.0,103.0,13.4,1505.2,342.8,-0.7,1.8,2471.313,13.29,0.01,180.0
2023-08-05T03:16:03,42.805,6.029,-0.01,0.022,-0.032,104.0,103.0,101.0,13.4,1505.2,342.8,-0.8,1.8,2471.286,13.29,0.024,335.6
2023-08-05T03:19:03,42.805,6.029,-0.003,0.016,-0.033,103.0,103.0,101.0,13.4,1505.2,335.0,-0.8,1.8,2471.26,13.29,0.016,349.4
2023-08-05T03:22:03,42.805,6.029,0.009,-0.015,-0.021,104.0,103.0,102.0,13.3,1505.2,346.2,-0.8,1.8,2471.262,13.29,0.017,149.0
2023-08-05T03:25:03,42.805,6.029,-0.004,-0.008,-0.005,104.0,104.0,101.0,13.4,1505.2,336.0,-0.7,1.8,2471.295,13.29,0.008,206.6
2023-08-05T03:28:03,42.805,6.029,-0.013,-0.007,0.002,104.0,103.0,103.0,13.3,1505.2,336.6,-0.8,1.9,2471.295,13.29,0.014,241.7
2023-08-05T03:31:03,42.805,6.029,-0.002,0.008,-0.021,103.0,103.0,101.0,13.4,1505.2,322.9,-0.8,1.9,2471.283,13.29,0.008,346.0
2023-08-05T03:34:03,42.805,6.029,0.002,0.0,-0.042,104.0,104.0,101.0,13.4,1505.2,345.9,-0.8,1.8,2471.272,13.29,0.002,90.0
2023-08-05T03:37:03,42.805,6.029,0.001,0.003,-0.045,102.0,103.0,102.0,13.4,1505.2,336.8,-0.7,1.8,2471.246,13.29,0.003,18.4
2023-08-05T03:40:03,42.805,6.029,0.001,0.0,-0.032,104.0,103.0,102.0,13.4,1505.2,347.1,-0.8,1.8,2471.277,13.29,0.001,90.0
2023-08-05T03:43:03,42.805,6.029,0.017,-0.006,-0.009,104.0,102.0,101.0,13.4,1505.2,347.1,-0.7,1.8,2471.251,13.29,0.018,109.4
2023-08-05T03:46:03,42.805,6.029,0.005,-0.007,-0.02,103.0,103.0,102.0,13.3,1505.2,328.0,-0.8,1.8,2471.229,13.29,0.008,144.5
2023-08-05T03:49:03,42.805,6.029,0.026,0.012,-0.015,103.0,103.0,102.0,13.4,1505.2,331.3,-0.7,1.8,2471.267,13.29,0.028,65.2
2023-08-05T03:52:03,42.805,6.029,0.004,-0.02,-0.015,104.0,104.0,101.0,13.3,1505.2,341.9,-0.7,1.8,2471.221,13.29,0.02,168.7
2023-08-05T03:55:03,42.805,6.029,-0.003,0.008,-0.007,102.0,104.0,102.0,13.4,1505.2,339.3,-0.8,1.8,2471.249,13.29,0.008,339.4
2023-08-05T03:58:03,42.805,6.029,-0.005,-0.003,-0.014,103.0,103.0,102.0,13.4,1505.2,326.0,-0.8,1.8,2471.258,13.29,0.005,239.0
2023-08-05T04:04:03,42.805,6.029,0.005,0.003,-0.023,102.0,103.0,101.0,13.4,1505.2,350.1,-0.8,1.8,2471.309,13.29,0.005,59.0
2023-08-05T04:07:03,42.805,6.029,-0.015,-0.014,-0.017,104.0,103.0,102.0,13.4,1505.2,345.9,-0.8,1.8,2471.304,13.29,0.02,227.0
2023-08-05T04:10:03,42.805,6.029,0.01,0.002,-0.01,104.0,102.0,101.0,13.4,1505.2,333.9,-0.8,1.8,2471.264,13.29,0.01,78.7
2023-08-05T04:13:03,42.805,6.029,0.005,-0.008,-0.028,102.0,104.0,101.0,13.4,1505.2,329.2,-0.8,1.8,2471.283,13.29,0.009,148.0
2023-08-05T04:16:03,42.805,6.029,0.008,-0.005,-0.052,103.0,102.0,102.0,13.3,1505.2,326.9,-0.8,1.8,2471.227,13.29,0.009,122.0
2023-08-05T04:19:03,42.805,6.029,0.011,0.014,0.008,103.0,103.0,101.0,13.4,1505.2,339.4,-0.8,1.8,2471.258,13.29,0.017,38.2
2023-08-05T04:22:03,42.805,6.029,0.013,-0.015,-0.072,105.0,103.0,101.0,13.4,1505.2,326.3,-0.8,1.8,2471.25,13.29,0.019,139.1
2023-08-05T04:25:03,42.805,6.029,0.002,-0.027,-0.032,104.0,103.0,102.0,13.3,1505.2,342.2,-0.7,1.8,2471.234,13.29,0.027,175.8
2023-08-05T04:28:03,42.805,6.029,0.004,0.0,-0.014,105.0,103.0,101.0,13.4,1505.2,350.1,-0.7,1.8,2471.225,13.29,0.004,90.0
2023-08-05T04:31:03,42.805,6.029,-0.016,0.007,-0.03,104.0,102.0,101.0,13.3,1505.2,332.8,-0.7,1.8,2471.241,13.29,0.017,293.6
2023-08-05T04:34:03,42.805,6.029,-0.012,0.01,-0.038,105.0,103.0,101.0,13.4,1505.2,331.3,-0.8,1.8,2471.231,13.29,0.015,309.8
2023-08-05T04:37:03,42.805,6.029,0.0,0.011,-0.019,103.0,101.0,102.0,13.4,1505.2,334.5,-0.7,1.8,2471.222,13.29,0.011,0.0
2023-08-05T04:40:03,42.805,6.029,-0.005,-0.014,-0.022,103.0,104.0,101.0,13.3,1505.2,331.2,-0.8,1.8,2471.244,13.29,0.014,199.6
2023-08-05T04:43:03,42.805,6.029,0.009,0.0,-0.015,104.0,103.0,102.0,13.3,1505.2,322.9,-0.7,1.8,2471.218,13.29,0.009,90.0
2023-08-05T04:46:03,42.805,6.029,-0.008,0.008,-0.02,102.0,103.0,102.0,13.3,1505.2,343.0,-0.7,1.8,2471.219,13.29,0.011,315.0
2023-08-05T04:49:03,42.805,6.029,-0.011,-0.007,-0.016,102.0,104.0,102.0,13.4,1505.2,319.6,-0.8,1.8,2471.239,13.29,0.013,237.5
2023-08-05T04:52:03,42.805,6.029,-0.015,0.014,-0.02,102.0,103.0,101.0,13.4,1505.2,343.4,-0.8,1.8,2471.212,13.29,0.02,313.0
2023-08-05T04:55:03,42.805,6.029,-0.011,-0.017,-0.041,104.0,103.0,103.0,13.4,1505.2,348.2,-0.8,1.8,2471.243,13.29,0.02,212.9
2023-08-05T04:58:03,42.805,6.029,-0.018,0.003,-0.015,103.0,103.0,101.0,13.4,1505.2,334.4,-0.8,1.8,2471.237,13.29,0.018,279.5
2023-08-05T05:04:03,42.805,6.029,-0.006,-0.015,-0.036,103.0,103.0,102.0,13.4,1505.2,322.5,-0.8,1.8,2471.319,13.29,0.016,201.8
2023-08-05T05:07:03,42.805,6.029,-0.023,0.022,-0.008,102.0,103.0,101.0,13.4,1505.2,324.2,-0.8,1.8,2471.26,13.29,0.031,313.7
2023-08-05T05:10:03,42.805,6.029,0.002,-0.009,-0.074,103.0,103.0,101.0,13.4,1505.2,337.4,-0.7,1.8,2471.316,13.29,0.009,167.5
2023-08-05T05:13:03,42.805,6.029,0.0,-0.022,-0.039,104.0,103.0,103.0,13.3,1505.2,344.2,-0.8,1.8,2471.288,13.29,0.022,180.0
2023-08-05T05:16:03,42.805,6.029,0.014,0.015,-0.02,103.0,103.0,101.0,13.4,1505.2,329.2,-0.7,1.8,2471.242,13.29,0.02,43.0
2023-08-05T05:19:03,42.805,6.029,0.001,-0.012,-0.02,103.0,104.0,101.0,13.3,1505.2,339.1,-0.7,1.8,2471.267,13.29,0.012,175.2
2023-08-05T05:22:03,42.805,6.029,0.008,0.017,-0.008,103.0,104.0,101.0,13.3,1505.2,320.8,-0.8,1.8,2471.296,13.29,0.018,25.2
2023-08-05T05:25:03,42.805,6.029,0.01,0.004,-0.024,103.0,103.0,101.0,13.4,1505.2,329.2,-0.8,1.8,2471.257,13.29,0.01,68.2
2023-08-05T05:28:03,42.805,6.029,-0.014,0.0,-0.039,103.0,103.0,102.0,13.4,1505.2,334.7,-0.8,1.8,2471.258,13.29,0.014,270.0
2023-08-05T05:31:03,42.805,6.029,0.007,0.003,-0.005,105.0,103.0,101.0,13.3,1505.2,330.8,-0.8,1.8,2471.242,13.29,0.007,66.8
2023-08-05T05:34:03,42.805,6.029,-0.012,0.012,-0.024,103.0,104.0,101.0,13.4,1505.2,344.4,-0.7,1.8,2471.208,13.29,0.016,315.0
2023-08-05T05:37:03,42.805,6.029,0.006,-0.012,-0.032,101.0,104.0,100.0,13.3,1505.2,339.6,-0.8,1.8,2471.291,13.29,0.013,153.4
2023-08-05T05:40:03,42.805,6.029,-0.001,-0.022,-0.034,103.0,102.0,101.0,13.4,1505.2,320.7,-0.8,1.8,2471.243,13.29,0.022,182.6
2023-08-05T05:43:03,42.805,6.029,-0.019,0.018,-0.012,104.0,103.0,101.0,13.4,1505.2,341.9,-0.8,1.8,2471.248,13.29,0.026,313.5
2023-08-05T05:46:03,42.805,6.029,0.014,-0.012,-0.005,103.0,103.0,102.0,13.4,1505.2,340.8,-0.7,1.8,2471.242,13.29,0.018,130.6
2023-08-05T05:49:03,42.805,6.029,-0.001,0.002,-0.03,102.0,103.0,102.0,13.4,1505.2,330.9,-0.8,1.8,2471.251,13.29,0.002,333.4
2023-08-05T05:52:03,42.805,6.029,0.004,0.0,-0.027,102.0,102.0,103.0,13.3,1505.2,353.0,-0.7,1.8,2471.216,13.29,0.004,90.0
2023-08-05T05:55:03,42.805,6.029,0.001,0.014,0.003,103.0,101.0,101.0,13.4,1505.2,329.2,-0.8,1.8,2471.239,13.29,0.014,4.1
2023-08-05T05:58:03,42.805,6.029,0.006,0.006,-0.031,103.0,104.0,101.0,13.4,1505.2,338.8,-0.7,1.8,2471.297,13.29,0.008,45.0
2023-08-05T06:04:03,42.805,6.029,-0.001,-0.009,-0.01,103.0,103.0,102.0,13.3,1505.2,343.4,-0.7,1.8,2471.274,13.29,0.009,186.3
2023-08-05T06:07:03,42.805,6.029,-0.007,-0.007,-0.032,102.0,102.0,101.0,13.4,1505.2,342.8,-0.8,1.8,2471.32,13.29,0.009,225.0
2023-08-05T06:10:03,42.805,6.029,-0.008,0.007,-0.018,104.0,104.0,102.0,13.4,1505.2,334.2,-0.8,1.8,2471.291,13.29,0.01,311.2
2023-08-05T06:13:03,42.805,6.029,-0.01,0.0,-0.032,104.0,103.0,101.0,13.3,1505.2,339.8,-0.7,1.8,2471.312,13.29,0.01,270.0
2023-08-05T06:16:03,42.805,6.029,-0.002,0.009,-0.014,103.0,102.0,101.0,13.4,1505.2,332.2,-0.8,1.8,2471.278,13.3,0.009,347.5
2023-08-05T06:19:03,42.805,6.029,0.0,-0.004,-0.031,102.0,103.0,102.0,13.4,1505.2,339.5,-0.8,1.9,2471.299,13.3,0.004,180.0
2023-08-05T06:22:03,42.805,6.029,-0.011,0.016,-0.017,103.0,102.0,101.0,13.4,1505.2,340.4,-0.8,1.8,2471.281,13.3,0.019,325.5
2023-08-05T06:25:03,42.805,6.029,0.008,0.012,-0.04,103.0,104.0,100.0,13.3,1505.2,335.6,-0.7,1.8,2471.308,13.3,0.014,33.7
2023-08-05T06:28:03,42.805,6.029,0.013,-0.004,0.005,104.0,104.0,100.0,13.4,1505.2,340.7,-0.8,1.8,2471.282,13.3,0.013,107.1
2023-08-05T06:31:03,42.805,6.029,0.015,0.005,-0.005,103.0,104.0,101.0,13.4,1505.2,337.6,-0.8,1.8,2471.298,13.3,0.015,71.6
2023-08-05T06:34:03,42.805,6.029,0.022,0.001,-0.028,103.0,104.0,101.0,13.3,1505.2,346.2,-0.8,1.8,2471.28,13.3,0.022,87.4
2023-08-05T06:37:03,42.805,6.029,-0.024,0.016,-0.016,104.0,103.0,103.0,13.4,1505.2,350.5,-0.7,1.8,2471.265,13.3,0.028,303.7
2023-08-05T06:40:03,42.805,6.029,0.0,-0.007,-0.016,102.0,103.0,101.0,13.4,1505.2,339.1,-0.8,1.8,2471.285,13.3,0.007,180.0
2023-08-05T06:43:03,42.805,6.029,0.005,-0.004,-0.046,103.0,103.0,101.0,13.3,1505.2,338.5,-0.8,1.8,2471.313,13.3,0.006,128.7
2023-08-05T06:46:03,42.805,6.029,0.018,-0.005,0.02,104.0,102.0,101.0,13.4,1505.2,327.8,-0.8,1.8,2471.255,13.3,0.018,105.5
2023-08-05T06:49:03,42.805,6.029,-0.009,0.007,-0.025,104.0,102.0,100.0,13.4,1505.2,338.2,-0.7,1.8,2471.285,13.3,0.011,307.9
2023-08-05T06:52:03,42.805,6.029,0.0,-0.011,-0.043,101.0,102.0,102.0,13.3,1505.2,340.0,-0.7,1.8,2471.302,13.29,0.011,180.0
2023-08-05T06:55:03,42.805,6.029,0.0,-0.004,-0.041,105.0,103.0,103.0,13.3,1505.2,341.1,-0.8,1.8,2471.316,13.29,0.004,180.0
2023-08-05T06:58:03,42.805,6.029,0.01,-0.003,-0.053,103.0,102.0,102.0,13.3,1505.2,319.6,-0.8,1.8,2471.299,13.29,0.01,106.7
2023-08-05T07:04:02,42.805,6.029,0.009,-0.008,0.009,102.0,103.0,102.0,13.4,1505.2,346.6,-0.8,1.8,2471.301,13.29,0.012,131.6
2023-08-05T07:07:02,42.805,6.029,-0.013,0.005,-0.041,103.0,104.0,100.0,13.4,1505.2,320.9,-0.8,1.8,2471.349,13.29,0.013,291.0
2023-08-05T07:10:03,42.805,6.029,0.002,0.001,-0.001,102.0,102.0,102.0,13.3,1505.2,347.0,-0.8,1.8,2471.342,13.29,0.002,63.4
2023-08-05T07:13:03,42.805,6.029,0.013,0.005,-0.021,103.0,103.0,102.0,13.3,1505.2,347.4,-0.8,1.8,2471.347,13.29,0.013,69.0
2023-08-05T07:16:03,42.805,6.029,-0.001,-0.012,-0.001,102.0,104.0,102.0,13.4,1505.2,328.8,-0.8,1.8,2471.349,13.29,0.012,184.8
2023-08-05T07:19:03,42.805,6.029,0.01,0.016,-0.023,104.0,104.0,101.0,13.4,1505.2,328.3,-0.8,1.8,2471.356,13.29,0.018,32.0
2023-08-05T07:22:03,42.805,6.029,-0.003,0.0,-0.014,102.0,105.0,101.0,13.3,1505.2,330.6,-0.8,1.8,2471.335,13.29,0.003,270.0
2023-08-05T07:25:03,42.805,6.029,0.002,0.01,-0.012,102.0,105.0,102.0,13.3,1505.2,332.0,-0.8,1.8,2471.311,13.29,0.01,11.3
2023-08-05T07:28:03,42.805,6.029,0.001,0.01,-0.033,103.0,103.0,102.0,13.4,1505.2,331.0,-0.8,1.8,2471.343,13.29,0.01,5.7
2023-08-05T07:31:03,42.805,6.029,0.015,-0.001,0.014,103.0,103.0,101.0,13.4,1505.2,330.2,-0.7,1.8,2471.316,13.29,0.015,93.8
2023-08-05T07:34:03,42.805,6.029,0.006,0.005,-0.001,103.0,103.0,101.0,13.4,1505.2,320.3,-0.8,1.8,2471.29,13.29,0.007,50.2
2023-08-05T07:37:03,42.805,6.029,-0.019,0.004,-0.032,103.0,102.0,102.0,13.4,1505.2,324.8,-0.7,1.8,2471.321,13.29,0.019,281.9
2023-08-05T07:40:03,42.805,6.029,-0.019,-0.008,-0.04,105.0,103.0,103.0,13.4,1505.2,344.7,-0.8,1.8,2471.333,13.29,0.02,247.2
2023-08-05T07:43:03,42.805,6.029,0.013,-0.008,-0.039,103.0,102.0,102.0,13.4,1505.2,340.0,-0.8,1.8,2471.369,13.29,0.015,121.6
2023-08-05T07:46:03,42.805,6.029,-0.003,0.0,-0.013,103.0,104.0,101.0,13.3,1505.2,325.4,-0.8,1.8,2471.36,13.29,0.003,270.0
2023-08-05T07:49:03,42.805,6.029,-0.006,0.012,-0.033,103.0,103.0,102.0,13.4,1505.2,343.9,-0.8,1.8,2471.383,13.29,0.013,333.4
2023-08-05T07:52:03,42.805,6.029,-0.012,0.006,-0.032,103.0,105.0,101.0,13.3,1505.2,334.4,-0.8,1.8,2471.383,13.29,0.013,296.6
2023-08-05T07:55:03,42.805,6.029,-0.019,0.018,0.004,102.0,104.0,102.0,13.4,1505.2,332.4,-0.8,1.8,2471.346,13.29,0.026,313.5
2023-08-05T07:58:03,42.805,6.029,0.036,-0.002,0.043,102.0,102.0,102.0,13.4,1505.2,330.7,-0.7,1.8,2471.336,13.29,0.036,93.2
2023-08-05T08:04:03,42.805,6.029,0.01,-0.006,-0.015,105.0,102.0,102.0,13.4,1505.2,334.8,-0.8,1.8,2471.43,13.29,0.011,121.0
2023-08-05T08:07:03,42.805,6.029,-0.002,0.003,-0.034,103.0,104.0,101.0,13.3,1505.2,346.8,-0.8,1.8,2471.388,13.29,0.003,326.3
2023-08-05T08:10:03,42.805,6.029,0.002,-0.004,-0.005,104.0,101.0,102.0,13.4,1505.2,330.2,-0.8,1.8,2471.366,13.29,0.004,153.4
2023-08-05T08:13:03,42.805,6.029,0.028,0.002,-0.014,104.0,101.0,103.0,13.3,1505.2,320.8,-0.8,1.8,2471.381,13.29,0.028,85.9
2023-08-05T08:16:03,42.805,6.029,-0.013,0.012,-0.013,102.0,103.0,101.0,13.4,1505.2,330.3,-0.8,1.8,2471.371,13.29,0.017,312.7
2023-08-05T08:19:03,42.805,6.029,0.017,-0.024,-0.034,103.0,103.0,102.0,13.4,1505.2,332.8,-0.8,1.8,2471.387,13.29,0.029,144.7
2023-08-05T08:22:03,42.805,6.029,0.01,-0.005,-0.023,102.0,103.0,102.0,13.4,1505.2,328.3,-0.8,1.8,2471.394,13.29,0.011,116.6
2023-08-05T08:25:03,42.805,6.029,0.024,-0.012,-0.038,104.0,104.0,101.0,13.4,1505.2,328.0,-0.8,1.8,2471.39,13.29,0.026,116.6
2023-08-05T08:28:03,42.805,6.029,0.01,-0.016,-0.047,103.0,104.0,102.0,13.4,1505.2,341.1,-0.8,1.8,2471.374,13.29,0.018,148.0
2023-08-05T08:31:03,42.805,6.029,0.005,0.035,0.001,103.0,102.0,102.0,13.4,1505.2,339.8,-0.7,1.8,2471.347,13.29,0.035,8.1
2023-08-05T08:34:03,42.805,6.029,0.011,-0.001,-0.006,103.0,102.0,103.0,13.4,1505.2,332.1,-0.7,1.8,2471.359,13.29,0.011,95.2
2023-08-05T08:37:03,42.805,6.029,0.002,-0.015,-0.039,104.0,103.0,101.0,13.4,1505.2,328.6,-0.8,1.8,2471.367,13.29,0.015,172.4
2023-08-05T08:40:03,42.805,6.029,0.02,0.011,0.004,102.0,102.0,102.0,13.3,1505.2,343.7,-0.8,1.8,2471.377,13.29,0.022,61.2
2023-08-05T08:43:03,42.805,6.029,0.0,-0.004,-0.023,104.0,103.0,102.0,13.4,1505.2,331.1,-0.8,1.8,2471.39,13.29,0.004,180.0
2023-08-05T08:46:03,42.805,6.029,0.005,0.007,-0.037,103.0,103.0,102.0,13.4,1505.2,334.5,-0.7,1.8,2471.393,13.29,0.008,35.5
2023-08-05T08:49:03,42.805,6.029,0.008,-0.013,-0.008,103.0,103.0,102.0,13.4,1505.2,338.5,-0.8,1.8,2471.373,13.29,0.015,148.4
2023-08-05T08:52:03,42.805,6.029,-0.001,-0.008,-0.011,103.0,102.0,102.0,13.4,1505.2,320.5,-0.8,1.8,2471.42,13.29,0.008,187.1
2023-08-05T08:55:03,42.805,6.029,0.019,0.006,-0.017,103.0,103.0,102.0,13.3,1505.2,326.6,-0.7,1.8,2471.371,13.29,0.019,72.5
2023-08-05T08:58:03,42.805,6.029,0.0,-0.01,-0.042,104.0,102.0,101.0,13.4,1505.2,342.3,-0.8,1.8,2471.356,13.29,0.01,180.0
2023-08-05T09:04:03,42.805,6.029,0.003,0.004,-0.035,102.0,106.0,101.0,13.3,1505.2,336.6,-0.7,1.8,2471.457,13.29,0.005,36.9
2023-08-05T09:07:03,42.805,6.029,0.026,0.0,0.003,102.0,103.0,102.0,13.3,1505.2,350.5,-0.8,1.8,2471.452,13.29,0.026,90.0
2023-08-05T09:10:03,42.805,6.029,-0.006,0.012,0.001,102.0,101.0,102.0,13.3,1505.2,325.6,-0.8,1.8,2471.372,13.29,0.013,333.4
2023-08-05T09:13:03,42.805,6.029,0.012,0.017,-0.002,102.0,105.0,102.0,13.4,1505.2,343.6,-0.8,1.8,2471.382,13.29,0.02,35.2
2023-08-05T09:16:03,42.805,6.029,-0.006,0.0,-0.028,102.0,103.0,102.0,13.3,1505.2,321.0,-0.8,1.8,2471.439,13.29,0.006,270.0
2023-08-05T09:19:03,42.805,6.029,0.005,-0.006,-0.052,102.0,102.0,102.0,13.4,1505.2,333.4,-0.7,1.8,2471.378,13.29,0.007,140.2
2023-08-05T09:22:03,42.805,6.029,0.012,0.002,-0.032,102.0,103.0,101.0,13.4,1505.2,328.5,-0.7,1.8,2471.422,13.29,0.012,80.5
2023-08-05T09:25:03,42.805,6.029,-0.006,-0.01,-0.046,102.0,104.0,101.0,13.4,1505.2,325.4,-0.8,1.8,2471.385,13.29,0.011,211.0
2023-08-05T09:28:03,42.805,6.029,0.023,0.003,-0.011,106.0,101.0,102.0,13.4,1505.2,334.4,-0.8,1.8,2471.401,13.29,0.023,82.6
2023-08-05T09:31:03,42.805,6.029,0.003,0.002,-0.043,103.0,104.0,101.0,13.4,1505.2,321.6,-0.8,1.8,2471.357,13.29,0.003,56.3
2023-08-05T09:34:03,42.805,6.029,0.001,0.002,-0.013,103.0,103.0,103.0,13.3,1505.2,323.3,-0.8,1.8,2471.373,13.29,0.002,26.6
2023-08-05T09:37:03,42.805,6.029,0.012,0.006,0.028,103.0,104.0,101.0,13.4,1505.2,341.5,-0.7,1.8,2471.391,13.29,0.013,63.4
2023-08-05T09:40:03,42.805,6.029,0.0,0.002,-0.04,103.0,105.0,102.0,13.4,1505.2,335.8,-0.8,1.8,2471.404,13.29,0.002,0.0
2023-08-05T09:43:03,42.805,6.029,0.011,0.0,-0.018,102.0,103.0,103.0,13.4,1505.2,326.0,-0.7,1.8,2471.412,13.29,0.011,90.0
2023-08-05T09:46:03,42.805,6.029,-0.001,0.0,-0.02,103.0,104.0,103.0,13.4,1505.2,321.9,-0.7,1.8,2471.384,13.29,0.001,270.0
2023-08-05T09:49:03,42.805,6.029,0.006,0.005,-0.05,104.0,102.0,101.0,13.4,1505.2,322.0,-0.8,1.8,2471.359,13.29,0.007,50.2
2023-08-05T09:52:03,42.805,6.029,0.0,-0.013,-0.051,103.0,103.0,101.0,13.4,1505.2,343.0,-0.8,1.8,2471.383,13.29,0.013,180.0
2023-08-05T09:55:03,42.805,6.029,0.006,-0.004,-0.038,105.0,103.0,103.0,13.4,1505.2,330.7,-0.8,1.8,2471.386,13.29,0.007,123.7
2023-08-05T09:58:03,42.805,6.029,0.01,0.004,-0.025,104.0,101.0,102.0,13.4,1505.2,348.6,-0.8,1.8,2471.404,13.29,0.01,68.2